[TLELIST] Archives

 

Current TLEs

March 8th 2008 PDT

HST 1 20580U 90037B 08066.90373099 .00000405 00000-0 18523-4 0 874 2 20580 028.4687 270.3312 0003352 018.6375 341.4336 15.00345764779601 ISS (ZARYA) 1 25544U 98067A 08067.37660855 .00019759 00000-0 12813-3 0 632 2 25544 051.6382 181.1891 0001970 206.4772 260.0150 15.76021542532468 CXO 1 25867U 99040B 08067.08333333 .00000335 00000-0 10000-3 0 1758 2 25867 063.2578 083.1285 6657936 280.1712 357.4969 00.37808950 3243 ____________________________________________________________________ These 2-Line ...Continue Reading

Current TLEs

March 7th 2008 PDT

HST 1 20580U 90037B 08064.90811228 +.00000428 +00000-0 +20351-4 0 01028 2 20580 028.4687 283.3448 0003387 357.4879 002.5695 15.00344891779306 ISS (ZARYA) 1 25544U 98067A 08066.41457713 .00019631 00000-0 12755-3 0 558 2 25544 051.6382 186.1436 0001981 205.1175 199.4931 15.75981358532318 CXO 1 25867U 99040B 08067.08333333 .00000335 00000-0 10000-3 0 1758 2 25867 063.2578 083.1285 6657936 280.1712 357.4969 00.37808950 3243 ____________________________________________________________________ These 2-Line ...Continue Reading

Current TLEs

March 6th 2008 PDT

HST 1 20580U 90037B 08064.97463286 .00000431 00000-0 20558-4 0 866 2 20580 028.4688 282.9109 0003378 358.4129 001.6450 15.00344955779316 ISS (ZARYA) 1 25544U 98067A 08065.41280892 .00021267 00000-0 13802-3 0 494 2 25544 051.6378 191.3046 0001795 197.5538 279.7355 15.75946995532150 CXO 1 25867U 99040B 08064.41666667 .00000259 00000-0 10000-3 0 1745 2 25867 063.2420 083.1952 6652960 280.1746 354.5094 00.37806768 3230 ____________________________________________________________________ These 2-Line ...Continue Reading

Current TLEs

March 5th 2008 PDT

HST 1 20580U 90037B 08063.91030262 .00000405 00000-0 18594-4 0 850 2 20580 028.4689 289.8532 0003375 345.8741 014.1756 15.00344230779156 ISS (ZARYA) 1 25544U 98067A 08064.39494022 .00023745 00000-0 15381-3 0 422 2 25544 051.6387 196.5448 0002324 188.9695 269.7466 15.75912859531995 CXO 1 25867U 99040B 08064.41666667 .00000259 00000-0 10000-3 0 1745 2 25867 063.2420 083.1952 6652960 280.1746 354.5094 00.37806768 3230 ____________________________________________________________________ These 2-Line ...Continue Reading

Current TLEs

March 4th 2008 PDT

HST 1 20580U 90037B 08062.84597179 .00000368 00000-0 15662-4 0 846 2 20580 028.4691 296.7949 0003401 332.8863 027.1548 15.00343468778995 ISS (ZARYA) 1 25544U 98067A 08063.38218727 .00022481 00000-0 14617-3 0 377 2 25544 051.6373 201.7628 0002237 190.1262 279.1703 15.75863998531838 CXO 1 25867U 99040B 08059.12500000 .00000125 00000-0 10000-3 0 1736 2 25867 063.2186 083.3154 6641497 280.2288 354.1024 00.37805772 3211 ____________________________________________________________________ These 2-Line ...Continue Reading

Current TLEs

March 3rd 2008 PDT

HST 1 20580U 90037B 08060.91687157 +.00000331 +00000-0 +12808-4 0 01017 2 20580 028.4691 309.3748 0003480 312.6300 047.3993 15.00342411778706 ISS (ZARYA) 1 25544U 98067A 08062.29860708 .00025858 00000-0 16778-3 0 302 2 25544 051.6376 207.3415 0002540 180.9092 257.0662 15.75816841531667 CXO 1 25867U 99040B 08059.12500000 .00000125 00000-0 10000-3 0 1736 2 25867 063.2186 083.3154 6641497 280.2288 354.1024 00.37805772 3211 ____________________________________________________________________ These 2-Line ...Continue Reading

Current TLEs

March 2nd 2008 PDT

HST 1 20580U 90037B 08061.11643372 .00000351 00000-0 14365-4 0 832 2 20580 028.4691 308.0728 0003438 315.5735 044.4580 15.00342643778737 ISS (ZARYA) 1 25544U 98067A 08061.40368593 .00024713 00000-0 16090-3 0 248 2 25544 051.6382 211.9487 0002641 173.2336 224.5544 15.75767833531521 CXO 1 25867U 99040B 08059.12500000 .00000125 00000-0 10000-3 0 1736 2 25867 063.2186 083.3154 6641497 280.2288 354.1024 00.37805772 3211 ____________________________________________________________________ These 2-Line ...Continue Reading

Current TLEs

March 1st 2008 PDT

HST 1 20580U 90037B 08059.85253987 .00000333 00000-0 12922-4 0 825 2 20580 028.4690 316.3167 0003530 300.4556 059.5683 15.00342024778545 ISS (ZARYA) 1 25544U 98067A 08060.45455880 .00017015 00000-0 11243-3 0 172 2 25544 051.6397 216.8383 0002190 178.7285 231.3277 15.75715172531379 CXO 1 25867U 99040B 08059.12500000 .00000125 00000-0 10000-3 0 1736 2 25867 063.2186 083.3154 6641497 280.2288 354.1024 00.37805772 3211 ____________________________________________________________________ These 2-Line ...Continue Reading

Current TLEs

February 29th 2008 PDT

HST 1 20580U 90037B 08058.18952117 .00000356 00000-0 14738-4 0 812 2 20580 028.4688 327.1604 0003561 282.2673 077.7518 15.00341572778297 ISS (ZARYA) 1 25544U 98067A 08059.24020833 .00010632 00000-0 66346-4 0 97 2 25544 051.6380 223.0842 0007793 085.9488 271.1938 15.77533424531173 CXO 1 25867U 99040B 08059.12500000 .00000125 00000-0 10000-3 0 1736 2 25867 063.2186 083.3154 6641497 280.2288 354.1024 00.37805772 3211 ____________________________________________________________________ These 2-Line ...Continue Reading

Current TLEs

February 28th 2008 PDT

HST 1 20580U 90037B 08058.18952117 .00000356 00000-0 14738-4 0 812 2 20580 028.4688 327.1604 0003561 282.2673 077.7518 15.00341572778297 ISS (ZARYA) 1 25544U 98067A 08058.36658672 .00010387 00000-0 64970-4 0 39 2 25544 051.6383 227.5940 0007784 083.4598 348.9527 15.77512657531047 CXO 1 25867U 99040B 08059.12500000 .00000125 00000-0 10000-3 0 1736 2 25867 063.2186 083.3154 6641497 280.2288 354.1024 00.37805772 3211 ____________________________________________________________________ These 2-Line ...Continue Reading
  • This mailing list is a public mailing list - anyone may join or leave, at any time.
  • This mailing list is announce-only.

International Space Station (ISS) / Hubble Space Telescope (HST) / Chandra X-Ray Observatory Orbital Data via EMAIL

Privacy Policy:

Private list